• Join FlightAware (Why Join?)
  • Login
  • US Flag GB Flag 
15:23 EDT


 

Airport Tracker/Info


-or-


 

Live Flight TrackerFlight Track Log ✈ SWA2855 ✈ 22-Apr-2013 ✈ KBWI - KCMH

Flight Track Log - Related Links

Times and Time Zones

All times are in EDT time to prevent confusion due to time zone crossing. See the SWA2855 flight status page for this flight to view local times or setup timezone preferences in your user account.

Time Position Orientation Groundspeed Altitude Reporting Facility
EDT Latitude Longitude Course Direction KTS MPH feet Rate Location/Type
06:22 39.1333 -76.6667 211° Southwest 223 257 3,200  Level Potomac TRACON
06:25 39.1922 -76.8531 292° West 262 302 11,400 3,900 Climbing Washington Center
06:26 39.2142 -76.9658 284° West 296 341 15,800 2,760 Climbing Washington Center
06:27 39.2125 -77.0917 269° West 320 368 17,000 1,740 Climbing Washington Center
06:28 39.0691 -77.2556 211° Southwest  Level FlightAware Approximate
06:28 39.1717 -77.1981 244° Southwest 327 376 19,300  Level Washington Center
06:29 39.1097 -77.2928 230° Southwest 325 374 22,600 2,820 Climbing Washington Center
06:30 39.0911 -77.4261 260° West 352 405 25,000 2,160 Climbing Washington Center
06:31 39.0703 -77.5672 259° West 371 427 27,000 1,200 Climbing Washington Center
06:32 39.0517 -77.6844 258° West 377 434 27,400 1,500 Climbing Washington Center
06:33 39.0261 -77.8281 257° West 377 434 30,000 1,260 Climbing Washington Center
06:34 39.0047 -77.9636 259° West 378 435 30,000  Level Washington Center
06:35 38.9811 -78.0992 257° West 383 441 30,000  Level Washington Center
06:36 38.9617 -78.2319 259° West 388 447 30,000  Level Washington Center
06:37 38.9647 -78.3736 272° West 388 447 30,000  Level Washington Center
06:38 38.9697 -78.5153 273° West 388 447 30,000  Level Washington Center
06:39 38.9744 -78.6517 273° West 393 452 30,000  Level Washington Center
06:40 38.9769 -78.7986 271° West 398 458 30,000  Level Washington Center
06:41 38.9817 -78.9375 273° West 398 458 30,000  Level Washington Center
06:42 38.9858 -79.0767 272° West 403 464 30,000  Level Washington Center
06:43 38.9900 -79.2183 272° West 403 464 30,000  Level Washington Center
06:44 38.9942 -79.3603 272° West 403 464 30,000  Level Washington Center
06:45 38.9978 -79.5019 272° West 403 464 30,000  Level Washington Center
06:46 38.9992 -79.6489 271° West 409 471 30,000  Level Washington Center
06:47 39.0006 -79.7906 271° West 409 471 30,000  Level Washington Center
06:48 39.0017 -79.9350 271° West 409 471 30,000  Level Washington Center
06:49 39.0056 -80.0608 272° West 403 464 30,000  Level Washington Center
06:50 39.0067 -80.2650 270° West 398 458 30,000  Level Indianapolis Center
06:51 39.0267 -80.4039 281° West 403 464 30,000  Level Indianapolis Center
06:52 39.0672 -80.5383 291° West 405 466 30,000  Level Indianapolis Center
06:53 39.1064 -80.6728 291° West 403 464 30,000 -900 Level Indianapolis Center
06:54 39.1475 -80.8092 291° West 408 470 28,200 -1,020 Descending Indianapolis Center
06:55 39.1864 -80.9433 291° West 405 466 28,000 -600 Descending Indianapolis Center
06:56 39.2256 -81.0772 291° West 400 460 27,000 -1,020 Descending Indianapolis Center
06:57 39.2656 -81.2083 292° West 395 455 26,000 -960 Descending Indianapolis Center
06:58 39.3039 -81.3397 291° West 394 453 25,100 -960 Descending Indianapolis Center
06:59 39.3408 -81.4692 290° West 388 447 24,100 -1,020 Descending Indianapolis Center
07:00 39.3778 -81.5989 290° West 387 445 23,100 -1,020 Descending Indianapolis Center
07:01 39.4139 -81.7244 290° West 377 434 22,100 -1,320 Descending Indianapolis Center
07:02 39.4533 -81.8658 290° West 367 422 20,600 -1,740 Descending Indianapolis Center
07:03 39.4675 -81.9131 291° West 365 420 19,700 -2,280 Descending Indianapolis Center
07:03 39.4894 -81.9931 290° West 362 417 18,200 -2,040 Descending Indianapolis Center
07:04 39.5053 -82.0492 290° West 346 398 17,500 -2,100 Descending Indianapolis Center
07:04 39.5225 -82.1083 291° West 350 403 16,100 -2,700 Descending Indianapolis Center
07:05 39.5381 -82.1631 290° West 342 394 14,800 -2,580 Descending Indianapolis Center
07:05 39.5578 -82.2258 292° West 343 395 13,500 -2,280 Descending Indianapolis Center
07:06 39.5786 -82.2511 317° Northwest 341 392 12,800 -2,100 Descending Indianapolis Center
07:06 39.6261 -82.3103 316° Northwest 334 384 11,400 -1,800 Descending Indianapolis Center
07:07 39.6461 -82.3419 309° West 326 375 11,000 -1,200 Descending Indianapolis Center
07:07 39.6878 -82.3956 315° West 325 374 10,200 -1,020 Descending Indianapolis Center
07:08 39.7097 -82.4272 312° West 322 371 10,000 -240 Descending Indianapolis Center
07:08 39.7500 -82.4797 315° West 321 369 10,000  Level Indianapolis Center
07:09 39.7672 -82.5119 305° West 317 365 10,000 -840 Level Indianapolis Center
07:09 39.7869 -82.5747 292° West 292 336 9,200 -1,200 Descending Indianapolis Center
07:10 39.7967 -82.6072 291° West 278 320 8,800 -1,380 Descending Indianapolis Center
07:10 39.8181 -82.6689 294° West 280 322 7,800 -1,440 Descending Indianapolis Center
07:11 39.8283 -82.6978 295° West 268 308 7,400 -1,620 Descending Indianapolis Center
07:11 39.8483 -82.7550 294° West 264 304 6,200 -1,380 Descending Indianapolis Center
07:12 39.8583 -82.7825 295° West 260 299 6,000 -240 Descending Indianapolis Center
07:12 39.8786 -82.8422 294° West 262 302 6,000  Level Indianapolis Center
07:13 39.8861 -82.8669 292° West 255 293 6,000 -720 Level Indianapolis Center
07:13 39.8953 -82.9253 282° West 240 276 5,300 -1,140 Descending Indianapolis Center
07:14 39.8964 -82.9633 272° West 230 265 4,800 -1,320 Descending Indianapolis Center
07:14 39.9000 -83.0086 276° West 235 270 4,000 -1,320 Descending Indianapolis Center
07:15 39.9075 -83.0461 285° West 238 274 3,500 -1,200 Descending Indianapolis Center
07:15 39.9414 -83.0586 344° North 243 280 2,800 -660 Descending Indianapolis Center
07:16 39.9833 -83.0386 20° North 244 281 2,700 -120 Descending Indianapolis Center
07:16 40.0017 -83.0267 27° Northeast 238 274 2,700 -660 Level Indianapolis Center
07:17 39.9989 -82.9725 94° East 178 205 1,800 -840 Descending Indianapolis Center
07:18 39.9961 -82.9275 95° East 143 165 1,100 -480 Descending Indianapolis Center
07:19 39.9947 -82.8794 92° East 134 154 900 -240 Descending Indianapolis Center